Regional Weather Roundup
Issued by NWS

Home | Current Version | Previous Version | Graphics & Text | Print | Product List | Glossary On
Versions: 1 2 3 4 5 6 7 8 9 10 11 12 13 14 15 16 17 18 19 20 21 22 23 24 25 26 27 28 29 30 31 32 33 34 35 36 37 38 39 40 41 42 43 44 45 46 47 48 49 50
000
ASUS43 KMPX 201910
RWRMN
WEATHER ROUNDUP FOR MINNESOTA
NATIONAL WEATHER SERVICE TWIN CITIES/CHANHASSEN MN
100 PM CST FRI JAN 20 2017


NOTE: "FAIR" INDICATES FEW OR NO CLOUDS BELOW 12,000 FEET WITH NO
SIGNIFICANT WEATHER AND/OR OBSTRUCTIONS TO VISIBILITY. N/A MEANS
CURRENT SKY AND/OR WEATHER CONDITIONS ARE NOT AVAILABLE.

MNZ060>063-068>070-202000-
   Twin Cities Metro

CITY           SKY/WX    TMP DP  RH WIND       PRES   REMARKS
TWIN CITIES    CLOUDY    36  34  92 SE6       29.56F
ST PAUL        CLOUDY    36  36 100 SE7       29.58F FOG
CRYSTAL        CLOUDY    36  33  89 SE8       29.55F FOG
BLAINE         CLOUDY    37  37 100 SE7       29.57F FOG
LAKEVILLE      CLOUDY    36  36 100 SE6       29.55F FOG
EDEN PRAIRIE   CLOUDY    37  36  96 SE6       29.54F
SOUTH ST PAUL  CLOUDY    37  36  98 SE5       29.57F FOG
LAKE ELMO      FOG       36  36 100 SE7       29.58F VSB 1
$$
MNZ001>005-007-008-013>017-022>024-027-028-202000-
   Northwest Minnesota

CITY           SKY/WX    TMP DP  RH WIND       PRES   REMARKS
BEMIDJI        CLOUDY    34  33  96 SE9       29.51F WCI  27
HALLOCK        CLOUDY    36  34  93 SE9       29.48F FOG
ROSEAU         CLOUDY    36  30  80 E3        29.51F FOG
WARROAD        CLOUDY    36  32  87 E6        29.51F FOG
THIEF RVR FALL CLOUDY    36  33  89 SE9       29.50F
CROOKSTON      CLOUDY    34  34 100 SE6       29.50F FOG     WCI  29
FOSSTON        CLOUDY    36  36 100 SE6       29.50F
DETROIT LAKES  FOG       34  34 100 SE12      29.51S VSB 3/4 WCI  25
MOORHEAD       CLOUDY    34  34 100 SE7       29.49F FOG     WCI  28
PARK RAPIDS    FOG       35  32  88 SE9       29.50F VSB 3/4 WCI  28
MAHNOMEN       CLOUDY    36  34  93 SE7       29.49F
$$
MNZ006-009>011-018-025>026-202000-
   North Central Minnesota

CITY           SKY/WX    TMP DP  RH WIND       PRES   REMARKS
BAUDETTE       CLOUDY    37  34  89 SE9       29.51F FOG
FLAG ISLAND    CLOUDY    36  34  93 E5        29.52F FOG
INTL FALLS     CLOUDY    38  34  85 SE8       29.55F
WASKISH        LGT RAIN  37  36  93 E8        29.52F
BIG FORK       LGT RAIN  37  34  87 SE8       29.54F
LONGVILLE      DRIZZLE   36  36 100 SE5       29.53F
GRAND RAPIDS   LGT RAIN  36  34  92 SE8       29.56F
CRANE LAKE     PTSUNNY   37  36  93 CALM      29.60F
ORR            CLOUDY    37  32  81 CALM      29.54F
COOK           CLOUDY    37  34  87 E3        29.57F
WALKER         FOG       34  33  98 SE5       29.52F VSB 1   WCI  30
$$
MNZ012-019>021-037-202000-
   Northeast Minnesota

CITY           SKY/WX    TMP DP  RH WIND       PRES   REMARKS
DULUTH         LGT RAIN  35  34  96 E14       29.57F FOG     WCI  26
ELY            CLOUDY    37  34  87 SE3       29.59F
HIBBING        LGT RAIN  34  34 100 SE9       29.56F WCI  27
EVELETH        RAIN      37  37  99 E3        29.58F
DULUTH HARBOR  DRIZZLE   34  34 100 NE14      29.60F WCI  24
TWO HARBORS    CLOUDY    37  34  87 E7        29.58F
SILVER BAY     CLOUDY    36  36 100 NE7       29.59F FOG
GRAND MARAIS     N/A     36  34  92 E10       29.65F
G MARAIS ARPRT CLOUDY    34  30  86 NE3       29.62F FOG
$$
MNZ029>031-032-039>041-046>048-054>057-064-202000-
   West Central Minnesota

CITY           SKY/WX    TMP DP  RH WIND       PRES   REMARKS
FERGUS FALLS   CLOUDY    34  34 100 SE10      29.53F FOG     WCI  26
WHEATON        CLOUDY    43  43 100 E13       29.48F FOG
MORRIS         CLOUDY    36  34  93 SE12      29.47F FOG
ALEXANDRIA     CLOUDY    33  33 100 SE10      29.52S FOG     WCI  25
ELBOW LAKE     CLOUDY    33  33 100 SE8       29.49F FOG     WCI  26
WADENA         FOG       34  34 100 SE8       29.51F VSB 1/2 WCI  27
GLENWOOD       FOG       34  34 100 SE8       29.51F VSB 3/4 WCI  27
APPLETON       CLOUDY    36  36 100 SE10      29.47F FOG
BENSON         CLOUDY    37  34  87 S7          N/A
ORTONVILLE     CLOUDY    36  34  93 SE13      29.45F FOG
MADISON        CLOUDY    37  37 100 SE14      29.46F FOG
WILLMAR        FOG       36  36 100 SE7       29.52F VSB 1/4
$$
MNZ033>034-036-042>043-049>051-058-059-202000-
   Central Minnesota

CITY           SKY/WX    TMP DP  RH WIND       PRES   REMARKS
ST CLOUD       FOG       34  34 100 SE9       29.54F VSB 1/4 WCI  27
SAUK CENTRE    CLOUDY    33  33 100 SE8       29.53F FOG     WCI  26
PAYNESVILLE    FOG       34  34 100 SE6       29.53F VSB 1/2 WCI  29
AITKIN         CLOUDY    37  34  87 SE7       29.54F
PINE RIVER     CLOUDY    34  34 100 SE7       29.58S FOG     WCI  28
BRAINERD       FOG       35  34  96 SE6       29.54F VSB 1   WCI  30
STAPLES        CLOUDY    34  34 100 SE5       29.52F FOG     WCI  30
LONG PRAIRIE   MIX PCPN  32  32 100 E5        29.53F WCI  27
LITTLE FALLS   FOG       34  32  93 SE7       29.54F VSB 3/4 WCI  28
LITCHFIELD     CLOUDY    36  36 100 SE6       29.54F FOG
BUFFALO        CLOUDY    36  34  94 SE5       29.56F FOG
MAPLE LAKE     FOG       36  36 100 MISG      29.56F VSB 3/4
HUTCHINSON     FOG       35  35 100 SE6       29.54F VSB 1/2 WCI  30
$$
MNZ037-044-045-052-053-202000-
   East Central Minnesota

CITY           SKY/WX    TMP DP  RH WIND       PRES   REMARKS
PRINCETON      CLOUDY    37  36  93 E6        29.56F FOG
MORA           CLOUDY    34  34 100 SE3       29.59F FOG
CAMBRIDGE      CLOUDY    37  36  93 SE5       29.55F FOG
RUSH CITY      CLOUDY    36  34  93 SE5       29.58F
MOOSE LAKE     LGT RAIN  36  34  93 SE3       29.55F
HINCKLEY       CLOUDY    36  36 100 SE5       29.58F
CLOQUET        RAIN      36  34  93 E6        29.57S VSB 1/2
MCGREGOR       CLOUDY    36  34  93 SE7       29.56F
$$
MNZ071>073-080-081-089-090-097-098-202000-
   Southwest Minnesota

CITY           SKY/WX    TMP DP  RH WIND       PRES   REMARKS
MONTEVIDEO     CLOUDY    36  36 100 S9        29.50F FOG
GRANITE FALLS  CLOUDY    37  37  97 SE7       29.50F FOG
CANBY          CLOUDY    37  37  99 CALM      29.46F FOG
MARSHALL       CLOUDY    38  37  97 SE10      29.47F
REDWOOD FALLS  CLOUDY    36  35  96 SE9       29.50F FOG
OLIVIA         FOG       34  34 100 SE6       29.50F VSB 1/2 WCI  29
PIPESTONE      FOG       37  37 100 S10       29.44F VSB 1/4
WINDOM         FOG       37  37 100 SE7       29.49F VSB 1/2
WORTHINGTON    CLOUDY    36  36 100 SE12      29.48  FOG
JACKSON        FOG       34  34 100 SE7       29.49F VSB 1/4 WCI  28
TRACY          CLOUDY    39  39  99 S12       29.48F
SLAYTON        CLOUDY    36  36 100 SE13G18   29.48F FOG
$$
MNZ065>067-074>077-082>085-091>093-202000-
   South Central Minnesota

CITY           SKY/WX    TMP DP  RH WIND       PRES   REMARKS
MANKATO        CLOUDY    36  36 100 S7        29.53F FOG
NEW ULM        CLOUDY    36  36 100 SE5       29.52F
ST JAMES       CLOUDY    36  36 100 SE8       29.52F
FAIRMONT       CLOUDY    36  36 100 SE8       29.51F
GLENCOE        CLOUDY    36  36 100 SE5       29.54F FOG
FARIBAULT      CLOUDY    36  36 100 S6        29.55F
OWATONNA       CLOUDY    36  34  93 S6        29.54F FOG
WASECA         CLOUDY    36  36 100 S5        29.54F FOG
ALBERT LEA     FOG       36  36 100 S7        29.54F VSB 3/4
$$
MNZ078>079-086>088-094>096-202000-
   Southeast Minnesota

CITY           SKY/WX    TMP DP  RH WIND       PRES   REMARKS
ROCHESTER      FOG       34  34 100 SE7       29.54F VSB 1/4 WCI  28
RED WING       FOG       36  34  93 SE7       29.57F VSB 1/4
STANTON        CLOUDY    38  35  89 S6        29.54F
DODGE CENTER   FOG       34  34 100 CALM      29.54F VSB<1/4
WINONA         FOG       36  36 100 SE6       29.60F VSB 1
AUSTIN         FOG       34  34 100 S3        29.55F VSB<1/4
PRESTON        FOG       35  34  97 SE7       29.55F VSB 1/4 WCI  29
$$
ABBREVIATIONS USED IN REMARKS
   TC - TEMPERATURES IN CELSIUS
  WCI - WIND CHILL INDEX
   HX - HEAT INDEX
  VSB - VISIBILITY
$$



USA.gov is the U.S. government's official web portal to all federal, state and local government web resources and services.